Flag for Pakistan Weather past 2 weeks in Karachi, Pakistan

Now
72 °F

Haze.


Feels Like: 76 °F
Forecast: 80 / 94 °F
Wind: No wind

Location: Karachi Airport

Current Time: Oct 22, 2014 at 7:05:51 AM

Latest Report: Oct 22, 2014 at 6:25 AM


Visibility: 3 mi

Pressure: 29.98 "Hg

Humidity: 57%

Dew point: 55 °F

Location of KarachiLocation

Historic Weather in Karachi — Graph

°F

Karachi temperature yesterday

Maximum temperature yesterday: 99 °F (at 12:55 PM)
Minimum temperature yesterday: 70 °F (at 4:55 AM)
Average temperature yesterday: 85 °F

Past Weeks' High & Low Weather Summary

 TemperatureHumidityPressure
High104 °F (Oct 11, 1:55 PM)89% (Oct 9, 6:30 AM)30.04 "Hg (Oct 9, 6:30 AM)
Low70 °F (Oct 16, 4:25 AM)9% (Oct 11, 1:55 PM)29.62 "Hg (Oct 18, 12:25 PM)
Average85 °F44%29.87 "Hg
* Reported Oct 7 5:55 AM — Oct 22 5:55 AM, Karachi, Weather by CustomWeather, © 2014

Note: Actual official high and low records may vary slightly from our data, if they occured in-between our weather recording intervals... More about our weather records

Advertising

Karachi weather history for previous 24 hours

 ConditionsComfort  
Time TempWeatherWind HumidityBarometerVisibility
5:55 AM
Oct 22
72 °FClear.No wind65%29.95 "Hg4 mi
4:55 AM72 °FClear.No wind65%29.95 "Hg4 mi
4:25 AM73 °FClear.5 mph65%29.95 "Hg4 mi
3:55 AM73 °FClear.3 mph65%29.95 "Hg4 mi
3:25 AM73 °FClear.5 mph65%29.95 "Hg4 mi
2:55 AM73 °FClear.5 mph61%29.95 "Hg4 mi
2:25 AM73 °FClear.5 mph61%29.95 "Hg4 mi
1:55 AM75 °FClear.5 mph57%29.95 "Hg4 mi
1:25 AM77 °FClear.No wind57%29.95 "Hg4 mi
12:55 AM77 °FClear.3 mph57%29.95 "Hg4 mi
12:25 AM79 °FClear.No wind51%29.98 "Hg4 mi
11:55 PM
Oct 21
79 °FClear.No wind51%29.98 "Hg4 mi
11:25 PM79 °FClear.No wind54%29.98 "Hg4 mi
10:55 PM81 °FClear.No wind51%29.98 "Hg4 mi
10:25 PM81 °FClear.No wind39%29.98 "Hg4 mi
9:55 PM81 °FClear.3 mph39%29.98 "Hg4 mi
9:25 PM82 °FClear.2 mph35%29.98 "Hg4 mi
8:55 PM84 °FClear.No wind35%29.95 "Hg4 mi
8:25 PM86 °FClear.3 mph40%29.95 "Hg4 mi
7:55 PM86 °FClear.5 mph35%29.95 "Hg4 mi
7:25 PM88 °FClear.5 mph31%29.95 "Hg4 mi
6:55 PM90 °FClear.7 mph27%29.92 "Hg4 mi
6:25 PM90 °FClear.7 mph24%29.92 "Hg4 mi
5:55 PM91 °FClear.9 mph21%29.92 "Hg4 mi
5:25 PM93 °FClear.12 mph20%29.89 "Hg4 mi
4:55 PM95 °FClear.12 mph19%29.89 "Hg4 mi
4:25 PM95 °FClear.13 mph19%29.89 "Hg4 mi
3:55 PM97 °FClear.8 mph17%29.89 "Hg4 mi
3:25 PM97 °FClear.12 mph18%29.89 "Hg4 mi
2:55 PM99 °FClear.15 mph16%29.89 "Hg4 mi
2:25 PM99 °FClear.12 mph15%29.89 "Hg4 mi
1:55 PM99 °FClear.7 mph15%29.92 "Hg4 mi
1:25 PM99 °FClear.12 mph16%29.92 "Hg4 mi
12:55 PM99 °FClear.16 mph16%29.95 "Hg4 mi
12:25 PM97 °FClear.3 mph14%29.95 "Hg4 mi
11:55 AM97 °FClear.5 mph14%29.98 "Hg4 mi
11:25 AM97 °FClear.No wind14%29.98 "Hg4 mi
10:55 AM97 °FClear.No wind16%30.01 "Hg4 mi
10:25 AM93 °FClear.6 mph17%30.01 "Hg4 mi
9:55 AM90 °FHaze.5 mph24%30.01 "Hg3 mi
9:25 AM88 °FClear.5 mph25%30.01 "Hg3 mi
8:55 AM82 °FClear.3 mph32%30.01 "Hg2 mi
8:25 AM77 °FClear.3 mph42%29.98 "Hg2 mi
7:55 AM73 °FClear.3 mph47%29.98 "Hg2 mi
7:25 AM70 °FClear.5 mph57%29.95 "Hg2 mi
Weather by CustomWeather, © 2014

See weather overviewHow to use our weather pages